Location: *
(41.7492°S, 135.4150°W)
Time: 18:58:59
(UTC+00:00)

Cosmos 1943 - Pass Details

Date: 20 September 2021
Orbit: 833 x 850 km, 71.0° (Epoch: 16 October)

Event Time Altitude Azimuth Distance (km) Brightness Sun altitude
Rises 13:38:40 0° 215° (SW) 3,426 6.1 -14.7°
Reaches altitude 10° 13:41:26 10° 226° (SW) 2,486 5.3 -14.2°
Maximum altitude 13:46:12 28° 283° (WNW) 1,545 4.0 -13.3°
Drops below altitude 10° 13:50:57 10° 340° (NNW) 2,469 5.3 -12.5°
Sets 13:53:41 0° 351° (N) 3,398 6.2 -12.0°
